| time (UTC) | temp C | wind direction | speed KPH | gust KPH | rain 1hr cm | rain 24hr cm | rain mn cm | humidity % | barometer mb |
| 20260506103027 | 15 | 313 | 4.8 | 19.3 | 0.00 | 0.00 | 0.00 | 72 | 1011.3 |
| 20260506102507 | 15 | 28 | 6.4 | 17.7 | 0.00 | 0.00 | 0.00 | 72 | 1011.2 |
| 20260506102007 | 15 | 45 | 6.4 | 14.5 | 0.00 | 0.00 | 0.00 | 73 | 1011.1 |
| 20260506101507 | 15 | 61 | 4.8 | 16.1 | 0.00 | 0.00 | 0.00 | 72 | 1011.0 |
| 20260506101003 | 15 | 47 | 1.6 | 16.1 | 0.00 | 0.00 | 0.00 | 73 | 1010.9 |
| 20260506100503 | 15 | 345 | 6.4 | 16.1 | 0.00 | 0.00 | 0.00 | 73 | 1010.9 |
| 20260506100010 | 15 | 27 | 4.8 | 17.7 | 0.00 | 0.00 | 0.00 | 72 | 1011.0 |
| 20260506095503 | 15 | 52 | 6.4 | 17.7 | 0.00 | 0.00 | 0.00 | 73 | 1010.9 |
| 20260506095004 | 15 | 42 | 3.2 | 14.5 | 0.00 | 0.00 | 0.00 | 73 | 1010.9 |
| 20260506094517 | 15 | 45 | 3.2 | 14.5 | 0.00 | 0.00 | 0.00 | 74 | 1010.9 |
| 20260506094006 | 15 | 338 | 3.2 | 14.5 | 0.00 | 0.00 | 0.00 | 73 | 1010.9 |
| 20260506093507 | 15 | 61 | 3.2 | 11.3 | 0.00 | 0.00 | 0.00 | 73 | 1010.8 |
| 20260506093020 | 15 | 86 | 3.2 | 9.7 | 0.00 | 0.00 | 0.00 | 73 | 1010.9 |
| 20260506092512 | 15 | 51 | 3.2 | 12.9 | 0.00 | 0.00 | 0.00 | 73 | 1010.8 |
| 20260506092007 | 15 | 33 | 4.8 | 12.9 | 0.00 | 0.00 | 0.00 | 73 | 1010.7 |
| 20260506091526 | 15 | 62 | 4.8 | 9.7 | 0.00 | 0.00 | 0.00 | 73 | 1010.7 |
| 20260506091007 | 15 | 49 | 3.2 | 9.7 | 0.00 | 0.00 | 0.00 | 72 | 1010.7 |
| 20260506090506 | 15 | 28 | 1.6 | 9.7 | 0.00 | 0.00 | 0.00 | 73 | 1010.7 |
| 20260506090007 | 15 | 32 | 3.2 | 9.7 | 0.00 | 0.00 | 0.00 | 73 | 1010.6 |
| 20260506085503 | 15 | 59 | 3.2 | 11.3 | 0.00 | 0.00 | 0.00 | 72 | 1010.6 |
| 20260506085003 | 15 | 26 | 3.2 | 11.3 | 0.00 | 0.00 | 0.00 | 72 | 1010.6 |
| 20260506084512 | 15 | 19 | 1.6 | 8.0 | 0.00 | 0.00 | 0.00 | 72 | 1010.5 |
| 20260506084006 | 15 | 25 | 4.8 | 8.0 | 0.00 | 0.00 | 0.00 | 72 | 1010.4 |
| 20260506083509 | 15 | 52 | 0.0 | 12.9 | 0.00 | 0.00 | 0.00 | 72 | 1010.2 |
| 20260506083019 | 15 | 60 | 4.8 | 11.3 | 0.00 | 0.00 | 0.00 | 72 | 1010.1 |
| 20260506082507 | 15 | 42 | 1.6 | 9.7 | 0.00 | 0.00 | 0.00 | 72 | 1010.1 |
| 20260506082007 | 15 | 53 | 4.8 | 9.7 | 0.00 | 0.00 | 0.00 | 72 | 1010.0 |
| 20260506081528 | 15 | 41 | 3.2 | 6.4 | 0.00 | 0.00 | 0.00 | 72 | 1010.3 |
| 20260506081010 | 15 | 57 | 3.2 | 6.4 | 0.00 | 0.00 | 0.00 | 72 | 1010.3 |
| 20260506080507 | 15 | 51 | 3.2 | 11.3 | 0.00 | 0.00 | 0.00 | 73 | 1010.1 |
| 20260506073506 | 16 | 46 | 6.4 | 17.7 | 0.00 | 0.00 | 0.00 | 72 | 1010.4 |
| 20260506073015 | 16 | 77 | 8.0 | 17.7 | 0.00 | 0.00 | 0.00 | 72 | 1010.5 |
| 20260506072507 | 16 | 51 | 4.8 | 16.1 | 0.00 | 0.00 | 0.00 | 72 | 1010.4 |
| 20260506072008 | 16 | 65 | 4.8 | 17.7 | 0.00 | 0.00 | 0.00 | 72 | 1010.4 |
| 20260506071521 | 16 | 61 | 6.4 | 17.7 | 0.00 | 0.00 | 0.00 | 72 | 1010.5 |
| 20260506071008 | 16 | 46 | 4.8 | 16.1 | 0.00 | 0.00 | 0.00 | 73 | 1010.2 |
| 20260506070507 | 16 | 9 | 4.8 | 12.9 | 0.00 | 0.00 | 0.00 | 74 | 1010.3 |
| 20260506062508 | 17 | 47 | 3.2 | 9.7 | 0.00 | 0.00 | 0.00 | 75 | 1010.1 |
| 20260506062007 | 17 | 46 | 4.8 | 12.9 | 0.00 | 0.00 | 0.00 | 74 | 1010.1 |
| 20260506061530 | 17 | 11 | 4.8 | 12.9 | 0.00 | 0.00 | 0.00 | 74 | 1010.1 |
| 20260506061011 | 17 | 37 | 3.2 | 8.0 | 0.00 | 0.00 | 0.00 | 74 | 1010.2 |
| 20260506060510 | 17 | 32 | 4.8 | 11.3 | 0.00 | 0.00 | 0.00 | 74 | 1010.0 |
| 20260506051009 | 19 | 49 | 3.2 | 16.1 | 0.00 | 0.00 | 0.00 | 74 | 1009.7 |
| 20260506050508 | 19 | 17 | 4.8 | 16.1 | 0.00 | 0.00 | 0.00 | 74 | 1009.7 |
| 20260506045011 | 20 | 36 | 6.4 | 16.1 | 0.00 | 0.00 | 0.00 | 74 | 1009.6 |
| 20260506044526 | 20 | 51 | 6.4 | 17.7 | 0.00 | 0.00 | 0.00 | 74 | 1009.5 |
| 20260506044013 | 20 | 29 | 6.4 | 17.7 | 0.00 | 0.00 | 0.00 | 73 | 1009.6 |
| 20260506043511 | 20 | 51 | 6.4 | 12.9 | 0.00 | 0.00 | 0.00 | 73 | 1009.4 |
| 20260506043025 | 21 | 70 | 6.4 | 19.3 | 0.00 | 0.00 | 0.00 | 74 | 1009.4 |
| 20260506042507 | 21 | 66 | 4.8 | 19.3 | 0.00 | 0.00 | 0.00 | 74 | 1009.2 |
| 20260506042012 | 21 | 44 | 4.8 | 17.7 | 0.00 | 0.00 | 0.00 | 73 | 1009.0 |
| 20260506041534 | 21 | 55 | 4.8 | 17.7 | 0.00 | 0.00 | 0.00 | 73 | 1008.9 |
| 20260506041010 | 21 | 52 | 8.0 | 17.7 | 0.00 | 0.00 | 0.00 | 73 | 1009.0 |
| 20260506040508 | 21 | 5 | 4.8 | 16.1 | 0.00 | 0.00 | 0.00 | 73 | 1009.0 |
| 20260506040024 | 21 | 49 | 4.8 | 17.7 | 0.00 | 0.00 | 0.00 | 73 | 1009.1 |
| 20260506035508 | 21 | 45 | 6.4 | 17.7 | 0.00 | 0.00 | 0.00 | 73 | 1009.0 |
| 20260506035008 | 21 | 49 | 3.2 | 14.5 | 0.00 | 0.00 | 0.00 | 73 | 1008.8 |
| 20260506034522 | 21 | 352 | 4.8 | 14.5 | 0.00 | 0.00 | 0.00 | 73 | 1008.8 |
| 20260506034010 | 21 | 46 | 4.8 | 12.9 | 0.00 | 0.00 | 0.00 | 73 | 1008.8 |
| 20260506033509 | 22 | 56 | 4.8 | 17.7 | 0.00 | 0.00 | 0.00 | 72 | 1009.0 |
| 20260506033027 | 22 | 41 | 4.8 | 17.7 | 0.00 | 0.00 | 0.00 | 72 | 1008.9 |
| 20260506032511 | 22 | 53 | 9.7 | 17.7 | 0.00 | 0.00 | 0.00 | 72 | 1008.7 |
| 20260506032007 | 22 | 32 | 6.4 | 17.7 | 0.00 | 0.00 | 0.00 | 72 | 1008.9 |
| 20260506031534 | 22 | 339 | 4.8 | 14.5 | 0.00 | 0.00 | 0.00 | 72 | 1008.9 |
| 20260506031009 | 23 | 39 | 3.2 | 12.9 | 0.00 | 0.00 | 0.00 | 73 | 1008.8 |
| 20260506030506 | 23 | 16 | 4.8 | 16.1 | 0.00 | 0.00 | 0.00 | 72 | 1008.2 |
| 20260506030027 | 23 | 51 | 4.8 | 16.1 | 0.00 | 0.00 | 0.00 | 72 | 1008.0 |
| 20260506025508 | 23 | 14 | 1.6 | 12.9 | 0.00 | 0.00 | 0.00 | 72 | 1007.9 |
| 20260506025006 | 23 | 352 | 3.2 | 9.7 | 0.00 | 0.00 | 0.00 | 72 | 1007.9 |
| 20260506024535 | 23 | 32 | 3.2 | 8.0 | 0.00 | 0.00 | 0.00 | 72 | 1007.7 |
| 20260506024007 | 23 | 334 | 1.6 | 6.4 | 0.00 | 0.00 | 0.00 | 72 | 1007.4 |
| 20260506023507 | 23 | 44 | 3.2 | 14.5 | 0.00 | 0.00 | 0.00 | 71 | 1007.3 |
| 20260506023029 | 23 | 18 | 4.8 | 14.5 | 0.00 | 0.00 | 0.00 | 71 | 1007.1 |
| 20260506022510 | 23 | 55 | 4.8 | 14.5 | 0.00 | 0.00 | 0.00 | 71 | 1007.0 |
| 20260506022014 | 23 | 40 | 4.8 | 12.9 | 0.00 | 0.00 | 0.00 | 71 | 1006.9 |
| 20260506021526 | 23 | 53 | 3.2 | 14.5 | 0.00 | 0.00 | 0.00 | 71 | 1007.1 |
| 20260506021007 | 23 | 26 | 4.8 | 14.5 | 0.00 | 0.00 | 0.00 | 71 | 1007.0 |
| 20260506020510 | 23 | 46 | 3.2 | 11.3 | 0.00 | 0.00 | 0.00 | 72 | 1006.6 |
| 20260506020028 | 24 | 30 | 3.2 | 11.3 | 0.00 | 0.00 | 0.00 | 71 | 1007.0 |
| 20260506015511 | 24 | 5 | 1.6 | 11.3 | 0.00 | 0.00 | 0.00 | 70 | 1006.9 |
| 20260506015011 | 24 | 26 | 4.8 | 9.7 | 0.00 | 0.00 | 0.00 | 70 | 1006.7 |
| 20260506014530 | 25 | 25 | 1.6 | 9.7 | 0.00 | 0.00 | 0.00 | 69 | 1006.7 |
| 20260506014007 | 25 | 53 | 1.6 | 14.5 | 0.00 | 0.00 | 0.00 | 69 | 1006.6 |
| 20260506013507 | 26 | 35 | 4.8 | 14.5 | 0.00 | 0.00 | 0.00 | 76 | 1006.6 |
| 20260506013029 | 26 | 252 | 0.0 | 3.2 | 0.00 | 0.00 | 0.00 | 77 | 1006.7 |
| 20260506012509 | 26 | 252 | 1.6 | 4.8 | 0.00 | 0.00 | 0.00 | 76 | 1006.7 |
| 20260506012010 | 26 | 240 | 0.0 | 8.0 | 0.00 | 0.00 | 0.00 | 76 | 1006.1 |
| 20260506011556 | 26 | 285 | 0.0 | 8.0 | 0.00 | 0.00 | 0.00 | 76 | 1006.0 |
| 20260506011011 | 26 | 281 | 3.2 | 16.1 | 0.00 | 0.00 | 0.00 | 76 | 1005.7 |
| 20260506010513 | 26 | 234 | 1.6 | 17.7 | 0.00 | 0.00 | 0.00 | 76 | 1005.6 |
| 20260506010026 | 26 | 221 | 4.8 | 17.7 | 0.00 | 0.00 | 0.00 | 76 | 1005.9 |
| 20260506005511 | 26 | 213 | 3.2 | 9.7 | 0.00 | 0.00 | 0.00 | 75 | 1006.0 |
| 20260506005009 | 26 | 219 | 3.2 | 9.7 | 0.00 | 0.00 | 0.00 | 75 | 1006.1 |
| 20260506004528 | 26 | 230 | 3.2 | 9.7 | 0.00 | 0.00 | 0.00 | 75 | 1005.9 |
| 20260506004010 | 26 | 240 | 3.2 | 9.7 | 0.00 | 0.00 | 0.00 | 76 | 1006.1 |
| 20260506003510 | 26 | 273 | 1.6 | 16.1 | 0.00 | 0.00 | 0.00 | 76 | 1006.0 |
| 20260506003005 | 26 | 277 | 0.0 | 16.1 | 0.00 | 0.00 | 0.00 | 75 | 1005.5 |
| 20260506002504 | 26 | 319 | 3.2 | 11.3 | 0.00 | 0.00 | 0.00 | 76 | 1005.6 |
| 20260506002002 | 27 | 243 | 1.6 | 12.9 | 0.00 | 0.00 | 0.00 | 75 | 1005.6 |
| 20260506001508 | 27 | 224 | 4.8 | 16.1 | 0.00 | 0.00 | 0.00 | 74 | 1005.4 |
| 20260506001004 | 27 | 190 | 9.7 | 16.1 | 0.00 | 0.00 | 0.00 | 72 | 1005.2 |
| 20260506000506 | 27 | 108 | 4.8 | 14.5 | 0.00 | 0.00 | 0.00 | 71 | 1005.1 |
| 20260506000008 | 27 | 132 | 4.8 | 14.5 | 0.00 | 0.00 | 0.00 | 71 | 1005.0 |
| 20260505235504 | 27 | 220 | 1.6 | 14.5 | 0.00 | 0.00 | 0.00 | 71 | 1004.8 |
| 20260505235003 | 28 | 253 | 3.2 | 16.1 | 0.00 | 0.00 | 0.00 | 71 | 1004.9 |
| 20260505234515 | 28 | 213 | 3.2 | 17.7 | 0.00 | 0.00 | 0.00 | 70 | 1005.1 |
| 20260505234005 | 28 | 202 | 6.4 | 19.3 | 0.00 | 0.00 | 0.00 | 70 | 1005.2 |
| 20260505233503 | 28 | 246 | 9.7 | 19.3 | 0.00 | 0.00 | 0.00 | 69 | 1005.0 |
| 20260505233003 | 28 | 236 | 4.8 | 14.5 | 0.00 | 0.00 | 0.00 | 69 | 1004.9 |
| 20260505232505 | 28 | 213 | 4.8 | 17.7 | 0.00 | 0.00 | 0.00 | 69 | 1004.9 |
| 20260505232003 | 28 | 258 | 6.4 | 17.7 | 0.00 | 0.00 | 0.00 | 68 | 1005.0 |
| 20260505231507 | 29 | 234 | 6.4 | 17.7 | 0.00 | 0.00 | 0.00 | 67 | 1005.1 |
| 20260505231002 | 29 | 196 | 8.0 | 17.7 | 0.00 | 0.00 | 0.00 | 67 | 1005.0 |
| 20260505230502 | 29 | 223 | 6.4 | 16.1 | 0.00 | 0.00 | 0.00 | 66 | 1004.8 |
| 20260505230010 | 30 | 180 | 4.8 | 16.1 | 0.00 | 0.00 | 0.00 | 67 | 1004.6 |
| 20260505225505 | 30 | 253 | 9.7 | 16.1 | 0.00 | 0.00 | 0.00 | 66 | 1004.6 |
| 20260505225003 | 30 | 263 | 6.4 | 16.1 | 0.00 | 0.00 | 0.00 | 66 | 1004.7 |
| 20260505224508 | 30 | 245 | 6.4 | 19.3 | 0.00 | 0.00 | 0.00 | 66 | 1004.6 |
| 20260505224004 | 30 | 244 | 6.4 | 19.3 | 0.00 | 0.00 | 0.00 | 65 | 1004.5 |
| 20260505223503 | 30 | 110 | 6.4 | 17.7 | 0.00 | 0.00 | 0.00 | 65 | 1004.5 |
| 20260505223010 | 30 | 202 | 3.2 | 22.5 | 0.00 | 0.00 | 0.00 | 67 | 1004.5 |
| 20260505222505 | 30 | 243 | 6.4 | 22.5 | 0.00 | 0.00 | 0.00 | 66 | 1004.6 |
| 20260505222002 | 30 | 221 | 4.8 | 22.5 | 0.00 | 0.00 | 0.00 | 66 | 1004.7 |
| 20260505221503 | 30 | 248 | 6.4 | 22.5 | 0.00 | 0.00 | 0.00 | 66 | 1004.7 |
| 20260505221002 | 30 | 213 | 8.0 | 19.3 | 0.00 | 0.00 | 0.00 | 66 | 1004.6 |
| 20260505220502 | 30 | 213 | 8.0 | 19.3 | 0.00 | 0.00 | 0.00 | 64 | 1004.6 |
| 20260505220008 | 30 | 147 | 6.4 | 24.1 | 0.00 | 0.00 | 0.00 | 65 | 1004.7 |
| 20260505215503 | 30 | 258 | 8.0 | 24.1 | 0.00 | 0.00 | 0.00 | 65 | 1004.6 |
| 20260505215006 | 30 | 250 | 8.0 | 19.3 | 0.00 | 0.00 | 0.00 | 65 | 1004.7 |
| 20260505214514 | 30 | 169 | 8.0 | 22.5 | 0.00 | 0.00 | 0.00 | 64 | 1004.7 |
| 20260505214004 | 30 | 243 | 4.8 | 20.9 | 0.00 | 0.00 | 0.00 | 66 | 1004.8 |
| 20260505213506 | 30 | 251 | 11.3 | 20.9 | 0.00 | 0.00 | 0.00 | 64 | 1004.8 |
| 20260505212503 | 31 | 300 | 8.0 | 30.6 | 0.00 | 0.00 | 0.00 | 64 | 1004.8 |
| 20260505212011 | 30 | 237 | 8.0 | 25.7 | 0.00 | 0.00 | 0.00 | 62 | 1004.8 |
| 20260505211518 | 31 | 207 | 12.9 | 19.3 | 0.00 | 0.00 | 0.00 | 63 | 1004.9 |
| 20260505211003 | 31 | 214 | 4.8 | 19.3 | 0.00 | 0.00 | 0.00 | 64 | 1004.8 |
| 20260505210502 | 30 | 246 | 4.8 | 19.3 | 0.00 | 0.00 | 0.00 | 65 | 1004.8 |
| 20260505210006 | 31 | 236 | 9.7 | 19.3 | 0.00 | 0.00 | 0.00 | 65 | 1005.0 |
| 20260505205503 | 31 | 209 | 9.7 | 19.3 | 0.00 | 0.00 | 0.00 | 64 | 1005.1 |
| 20260505205003 | 31 | 271 | 6.4 | 19.3 | 0.00 | 0.00 | 0.00 | 64 | 1005.2 |
| 20260505204508 | 31 | 224 | 9.7 | 17.7 | 0.00 | 0.00 | 0.00 | 63 | 1005.2 |
| 20260505204004 | 30 | 195 | 3.2 | 16.1 | 0.00 | 0.00 | 0.00 | 64 | 1005.2 |
| 20260505203504 | 30 | 253 | 4.8 | 17.7 | 0.00 | 0.00 | 0.00 | 63 | 1005.3 |
| 20260505203015 | 30 | 189 | 6.4 | 20.9 | 0.00 | 0.00 | 0.00 | 64 | 1005.4 |
| 20260505202505 | 30 | 227 | 8.0 | 20.9 | 0.00 | 0.00 | 0.00 | 63 | 1005.4 |
| 20260505202007 | 30 | 216 | 8.0 | 22.5 | 0.00 | 0.00 | 0.00 | 63 | 1005.4 |
| 20260505201512 | 30 | 246 | 9.7 | 22.5 | 0.00 | 0.00 | 0.00 | 64 | 1005.5 |
| 20260505201004 | 30 | 262 | 9.7 | 24.1 | 0.00 | 0.00 | 0.00 | 64 | 1005.5 |
| 20260505200503 | 30 | 242 | 11.3 | 24.1 | 0.00 | 0.00 | 0.00 | 62 | 1005.6 |
| 20260505200013 | 30 | 229 | 6.4 | 22.5 | 0.00 | 0.00 | 0.00 | 64 | 1005.6 |
| 20260505195503 | 30 | 170 | 11.3 | 22.5 | 0.00 | 0.00 | 0.00 | 64 | 1005.6 |
| 20260505195003 | 30 | 86 | 8.0 | 17.7 | 0.00 | 0.00 | 0.00 | 65 | 1005.6 |
| 20260505194508 | 30 | 247 | 9.7 | 17.7 | 0.00 | 0.00 | 0.00 | 64 | 1005.6 |
| 20260505194003 | 30 | 249 | 8.0 | 30.6 | 0.00 | 0.00 | 0.00 | 65 | 1005.6 |
| 20260505193505 | 30 | 232 | 11.3 | 30.6 | 0.00 | 0.00 | 0.00 | 65 | 1005.6 |
| 20260505193015 | 29 | 227 | 8.0 | 20.9 | 0.00 | 0.00 | 0.00 | 66 | 1005.6 |
| 20260505192504 | 29 | 285 | 8.0 | 25.7 | 0.00 | 0.00 | 0.00 | 67 | 1005.6 |
| 20260505192005 | 28 | 187 | 12.9 | 25.7 | 0.00 | 0.00 | 0.00 | 66 | 1005.7 |
| 20260505191516 | 28 | 265 | 8.0 | 20.9 | 0.00 | 0.00 | 0.00 | 69 | 1005.7 |
| 20260505191006 | 28 | 250 | 9.7 | 27.4 | 0.00 | 0.00 | 0.00 | 68 | 1005.8 |
| 20260505190505 | 28 | 207 | 8.0 | 27.4 | 0.00 | 0.00 | 0.00 | 68 | 1005.8 |
| 20260505190014 | 28 | 257 | 11.3 | 24.1 | 0.00 | 0.00 | 0.00 | 69 | 1005.8 |
| 20260505185504 | 28 | 210 | 11.3 | 25.7 | 0.00 | 0.00 | 0.00 | 69 | 1005.9 |
| 20260505185009 | 27 | 226 | 9.7 | 25.7 | 0.00 | 0.00 | 0.00 | 70 | 1005.8 |
| 20260505184520 | 27 | 240 | 11.3 | 25.7 | 0.00 | 0.00 | 0.00 | 70 | 1005.8 |
| 20260505184004 | 27 | 177 | 11.3 | 25.7 | 0.00 | 0.00 | 0.00 | 70 | 1006.0 |
| 20260505183503 | 27 | 243 | 11.3 | 22.5 | 0.00 | 0.00 | 0.00 | 70 | 1005.9 |
| 20260505183012 | 27 | 246 | 8.0 | 22.5 | 0.00 | 0.00 | 0.00 | 70 | 1005.9 |
| 20260505182503 | 27 | 275 | 9.7 | 24.1 | 0.00 | 0.00 | 0.00 | 71 | 1006.0 |
| 20260505182006 | 27 | 241 | 11.3 | 24.1 | 0.00 | 0.00 | 0.00 | 70 | 1006.0 |
| 20260505181516 | 27 | 234 | 4.8 | 24.1 | 0.00 | 0.00 | 0.00 | 69 | 1006.0 |
| 20260505181008 | 27 | 200 | 9.7 | 24.1 | 0.00 | 0.00 | 0.00 | 71 | 1006.1 |
| 20260505180507 | 27 | 211 | 6.4 | 20.9 | 0.00 | 0.00 | 0.00 | 69 | 1006.0 |
| 20260505180015 | 27 | 128 | 6.4 | 25.7 | 0.00 | 0.00 | 0.00 | 69 | 1006.0 |
| 20260505175506 | 28 | 232 | 11.3 | 25.7 | 0.00 | 0.00 | 0.00 | 67 | 1006.0 |
| 20260505175006 | 28 | 240 | 9.7 | 19.3 | 0.00 | 0.00 | 0.00 | 69 | 1006.1 |
| 20260505174518 | 28 | 220 | 6.4 | 24.1 | 0.00 | 0.00 | 0.00 | 70 | 1006.0 |
| 20260505174006 | 27 | 191 | 8.0 | 25.7 | 0.00 | 0.00 | 0.00 | 70 | 1005.9 |
| 20260505173510 | 27 | 261 | 11.3 | 25.7 | 0.00 | 0.00 | 0.00 | 70 | 1005.9 |
| 20260505173017 | 27 | 244 | 11.3 | 25.7 | 0.00 | 0.00 | 0.00 | 71 | 1006.0 |
| 20260505172503 | 27 | 225 | 9.7 | 24.1 | 0.00 | 0.00 | 0.00 | 70 | 1006.0 |
| 20260505172003 | 27 | 254 | 9.7 | 20.9 | 0.00 | 0.00 | 0.00 | 70 | 1006.1 |
| 20260505171515 | 27 | 250 | 6.4 | 19.3 | 0.00 | 0.00 | 0.00 | 71 | 1006.1 |
| 20260505171007 | 27 | 234 | 11.3 | 25.7 | 0.00 | 0.00 | 0.00 | 69 | 1006.0 |
| 20260505170508 | 27 | 207 | 9.7 | 25.7 | 0.00 | 0.00 | 0.00 | 70 | 1006.1 |
| 20260505170023 | 26 | 275 | 11.3 | 22.5 | 0.00 | 0.00 | 0.00 | 71 | 1006.1 |
| 20260505165505 | 26 | 238 | 6.4 | 25.7 | 0.00 | 0.00 | 0.00 | 71 | 1006.1 |
| 20260505165005 | 26 | 219 | 8.0 | 25.7 | 0.00 | 0.00 | 0.00 | 72 | 1006.0 |
| 20260505164518 | 26 | 203 | 6.4 | 25.7 | 0.00 | 0.00 | 0.00 | 72 | 1006.2 |
| 20260505164007 | 26 | 218 | 12.9 | 32.2 | 0.00 | 0.00 | 0.00 | 72 | 1006.2 |
| 20260505163510 | 26 | 258 | 11.3 | 33.8 | 0.00 | 0.00 | 0.00 | 72 | 1005.9 |
| 20260505163022 | 26 | 227 | 14.5 | 33.8 | 0.00 | 0.00 | 0.00 | 72 | 1006.0 |
| 20260505162506 | 26 | 234 | 12.9 | 30.6 | 0.00 | 0.00 | 0.00 | 73 | 1005.9 |
| 20260505162006 | 25 | 212 | 6.4 | 30.6 | 0.00 | 0.00 | 0.00 | 75 | 1005.9 |
| 20260505161517 | 25 | 211 | 14.5 | 33.8 | 0.00 | 0.00 | 0.00 | 74 | 1005.9 |
| 20260505161006 | 25 | 173 | 12.9 | 33.8 | 0.00 | 0.00 | 0.00 | 74 | 1005.8 |
| 20260505160506 | 25 | 200 | 9.7 | 29.0 | 0.00 | 0.00 | 0.00 | 76 | 1005.8 |
| 20260505153021 | 23 | 256 | 11.3 | 25.7 | 0.00 | 0.00 | 0.00 | 78 | 1006.1 |
| 20260505152506 | 23 | 215 | 9.7 | 17.7 | 0.00 | 0.00 | 0.00 | 78 | 1006.1 |
| 20260505152013 | 23 | 259 | 6.4 | 17.7 | 0.00 | 0.00 | 0.00 | 79 | 1006.2 |
| 20260505151520 | 23 | 209 | 9.7 | 24.1 | 0.00 | 0.00 | 0.00 | 78 | 1006.2 |
| 20260505151009 | 23 | 195 | 9.7 | 29.0 | 0.00 | 0.00 | 0.00 | 79 | 1006.1 |
| 20260505150507 | 23 | 219 | 4.8 | 32.2 | 0.00 | 0.00 | 0.00 | 79 | 1006.1 |
| 20260505140508 | 22 | 200 | 12.9 | 24.1 | 0.00 | 0.00 | 0.00 | 81 | 1005.7 |
| 20260505125008 | 22 | 202 | 11.3 | 22.5 | 0.00 | 0.00 | 0.00 | 82 | 1005.7 |
| 20260505124538 | 22 | 242 | 8.0 | 19.3 | 0.00 | 0.00 | 0.00 | 82 | 1005.5 |
| 20260505124010 | 22 | 225 | 6.4 | 25.7 | 0.00 | 0.00 | 0.00 | 82 | 1005.4 |
| 20260505123508 | 21 | 253 | 8.0 | 25.7 | 0.00 | 0.00 | 0.00 | 82 | 1005.3 |
| 20260505123022 | 21 | 238 | 8.0 | 22.5 | 0.00 | 0.00 | 0.00 | 82 | 1005.4 |
| 20260505122510 | 21 | 220 | 9.7 | 22.5 | 0.00 | 0.00 | 0.00 | 82 | 1005.2 |
| 20260505122014 | 21 | 211 | 9.7 | 25.7 | 0.00 | 0.00 | 0.00 | 82 | 1005.2 |
| 20260505121532 | 21 | 186 | 8.0 | 25.7 | 0.00 | 0.00 | 0.00 | 82 | 1005.3 |
| 20260505121011 | 21 | 224 | 8.0 | 25.7 | 0.00 | 0.00 | 0.00 | 82 | 1005.2 |
| 20260505120504 | 21 | 241 | 6.4 | 20.9 | 0.00 | 0.00 | 0.00 | 82 | 1005.2 |
| 20260505120009 | 21 | 201 | 8.0 | 20.9 | 0.00 | 0.00 | 0.00 | 82 | 1005.1 |
| 20260505115504 | 21 | 231 | 8.0 | 29.0 | 0.00 | 0.00 | 0.00 | 82 | 1005.0 |
| 20260505115003 | 21 | 214 | 12.9 | 29.0 | 0.00 | 0.00 | 0.00 | 83 | 1005.1 |
| 20260505114514 | 21 | 206 | 9.7 | 22.5 | 0.00 | 0.00 | 0.00 | 83 | 1005.0 |
| 20260505114008 | 21 | 226 | 8.0 | 22.5 | 0.00 | 0.00 | 0.00 | 82 | 1005.0 |
| 20260505113506 | 21 | 234 | 8.0 | 22.5 | 0.00 | 0.00 | 0.00 | 82 | 1005.0 |
| 20260505113004 | 21 | 194 | 9.7 | 22.5 | 0.00 | 0.00 | 0.00 | 82 | 1005.0 |
| 20260505112503 | 21 | 223 | 6.4 | 22.5 | 0.00 | 0.00 | 0.00 | 82 | 1004.9 |
| 20260505112003 | 21 | 245 | 9.7 | 25.7 | 0.00 | 0.00 | 0.00 | 82 | 1005.1 |
| 20260505111504 | 21 | 248 | 8.0 | 25.7 | 0.00 | 0.00 | 0.00 | 82 | 1005.1 |
| 20260505111004 | 21 | 168 | 6.4 | 19.3 | 0.00 | 0.00 | 0.00 | 82 | 1005.0 |
| 20260505110504 | 21 | 216 | 6.4 | 17.7 | 0.00 | 0.00 | 0.00 | 82 | 1004.9 |